[Iaude] MPEC O59: 2024 OA [a=1.36,e=0.46,i=0.3,H=25.0]
    mpec at cfa.harvard.edu 
    mpec at cfa.harvard.edu
       
    Fri Jul 26 09:57:21 EDT 2024
    
    
  
M.P.E.C. 2024-O59                                 Issued 2024 July 26, 13:56 UT
     The Minor Planet Electronic Circulars contain information on unusual
         minor planets, routine data on comets and natural satellites,
         and occasional editorial announcements.  They are published
    on behalf of Division F of the International Astronomical Union by the
          Minor Planet Center, Smithsonian Astrophysical Observatory,
                          Cambridge, MA 02138, U.S.A.
			  
             Prepared using the Tamkin Foundation Computer Network
                              MPC at CFA.HARVARD.EDU
            URL https://www.minorplanetcenter.net/    ISSN 1523-6714
                                    2024 OA                                     
Observations:
     K24O00A* C2024 07 25.17118721 05 17.762-59 20 26.84         16.44oVEO059W68
     K24O00A  C2024 07 25.17300721 05 11.573-59 17 09.85         16.41oVEO059W68
     K24O00A  C2024 07 25.17345721 05 10.061-59 16 20.64         16.19oVEO059W68
     K24O00A  C2024 07 25.18299421 04 38.273-58 59 16.37         16.38oVEO059W68
     K24O00A  C2024 07 25.18810221 04 21.598-58 50 12.95         16.29oVEO059W68
     K24O00A  C2024 07 26.24184920 46 16.930-40 27 00.72         17.27oVEO059W68
     K24O00A  C2024 07 26.24462720 46 15.161-40 25 21.94         17.23oVEO059W68
     K24O00A  C2024 07 26.25439920 46 08.993-40 19 34.86         17.17oVEO059W68
     K24O00A  C2024 07 26.28895520 45 48.026-39 59 22.60         17.25oVEO059W68
     K24O00A KC2024 07 26.51446 20 45 08.73 -38 02 32.1          17.4 VqEO059E23
     K24O00A KC2024 07 26.52062 20 45 05.74 -37 59 43.6          17.7 VqEO059E23
     K24O00A KC2024 07 26.52931 20 45 01.53 -37 55 47.1          17.7 VqEO059E23
Observer details:
E23 Arcadia.  Observer A. Hidas.  0.35-m f/1.9 reflector + CCD.
W68 ATLAS Chile, Rio Hurtado.  Observers L. Denneau, R. Siverd, J. Tonry, H.
    Weiland.  Measurers L. Denneau, N. Erasmus, A. Fitzsimmons, J. Robinson,
    R. Siverd, J. Tonry, H. Weiland.  0.5-m Reflector + CCD.
Orbital elements:
2024 OA                                                  Earth MOID = 0.0055 AU
Epoch 2024 Oct. 17.0 TT = JDT 2460600.5                 MPC                     
M  86.71413              (2000.0)            P               Q                  
n   0.61831143     Peri.  188.03090     -0.77563736     +0.63117164             
a   1.3645764      Node    31.10636     -0.57877134     -0.70932688             
e   0.4581640      Incl.    0.33344     -0.25181425     -0.31381163             
P   1.59           H   25.01          G   0.15           U   7                  
Residuals in seconds of arc
240725 W68  0.1+  0.7-    240725 W68  0.0   0.5-    240726 W68  0.1-  0.2+
240725 W68  0.1-  0.3-    240726 W68  0.0   0.0     240726 E23  0.0   0.0
240725 W68  0.0   0.4+    240726 W68  0.0   0.2-    240726 E23  0.1-  0.0
240725 W68  0.2-  0.7+    240726 W68  0.1+  0.0     240726 E23  0.0   0.5-
Ephemeris:
2024 OA                  a,e,i = 1.36, 0.46, 0                   q = 0.7394
Date    TT    R. A. (2000) Decl.     Delta      r    Elong.  Phase     V
2024 06 26    08 25 27.4 +18 29 32   0.2324  0.8226    29.7   142.3    28.6
...
2024 07 11    08 32 50.5 +16 06 29   0.1034  0.9187    17.8   160.2    30.9
...
2024 07 19    08 31 57.3 +10 51 31   0.04080 0.9766    13.5   165.9    31.7
...
2024 07 25    21 15 00.9 -65 01 57   0.0082981.0215   133.7    46.0    16.4
2024 07 26    20 48 12.9 -43 04 34   0.01467 1.0290   155.7    23.9    17.0
2024 07 27    20 42 57.8 -34 51 50   0.02189 1.0366   163.9    15.8    17.6
...
2024 08 02    20 37 18.9 -24 01 48   0.06767 1.0821   173.2     6.4    19.8
...
2024 08 10    20 36 34.3 -21 29 36   0.1314  1.1426   168.2    10.5    21.6
...
2024 08 25    20 39 52.3 -19 52 11   0.2622  1.2536   155.2    19.8    23.6
A. U. Tomatic                (C) Copyright 2024 MPC           M.P.E.C. 2024-O59
    
    
More information about the Iaude
mailing list